Flag for Portugal Weather past 2 weeks in Braga, Portugal

Now
69 °F

Mild.


Feels Like: 69 °F
Forecast: 47 / 78 °F
Wind: 7 mph from Northwest

Location: Porto / Pedras Rubras

Current Time: Apr 1, 2015 at 4:25:23 PM

Latest Report: Apr 1, 2015 at 3:00 PM


Visibility: N/A

Pressure: 30.32 "Hg

Humidity: 43%

Dew point: 46 °F

Location of BragaLocation

Historic Weather in Braga — Graph

°F

Braga temperature yesterday

Maximum temperature yesterday: 65 °F (at 3:00 PM)
Minimum temperature yesterday: 48 °F (at 5:00 AM)
Average temperature yesterday: 55 °F

Past Weeks' High & Low Weather Summary

 TemperatureHumidityPressure
High72 °F (Apr 1, 1:00 PM)94% (Mar 27, 2:00 AM)30.55 "Hg (Mar 27, 2:00 AM)
Low39 °F (Mar 25, 6:00 AM)30% (Mar 24, 4:00 PM)29.72 "Hg (Mar 20, 5:00 PM)
Average55 °F65%30.14 "Hg
* Reported Mar 17 5:00 PM — Apr 1 3:00 PM, Braga, Weather by CustomWeather, © 2015

Note: Actual official high and low records may vary slightly from our data, if they occured in-between our weather recording intervals... More about our weather records

Advertising

Braga weather history for previous 24 hours

 ConditionsComfort  
Time TempWeatherWind HumidityBarometerVisibility
3:00 PM
Wed, Apr 1
69 °FMild.7 mph43%30.32 "HgN/A
2:00 PM68 °FMild.5 mph48%30.34 "HgN/A
1:00 PM72 °FMild.3 mph34%30.36 "HgN/A
12:00 PM68 °FMild.2 mph49%30.39 "HgN/A
11:00 AM65 °FMild.3 mph44%30.40 "HgN/A
10:00 AM62 °FRefreshingly cool.3 mph55%30.40 "HgN/A
9:00 AM58 °FRefreshingly cool.3 mph58%30.40 "HgN/A
8:00 AM53 °FCool.2 mph64%30.40 "HgN/A
7:00 AM51 °FCool.3 mph67%30.39 "HgN/A
6:00 AM48 °FCool.2 mph76%30.39 "HgN/A
5:00 AM51 °FCool.2 mph72%30.38 "HgN/A
4:00 AM49 °FCool.5 mph75%30.40 "HgN/A
3:00 AM53 °FCool.6 mph72%30.40 "HgN/A
2:00 AM49 °FCool.5 mph79%30.42 "HgN/A
1:00 AM51 °FCool.3 mph75%30.43 "HgN/A
12:00 AM53 °FCool.3 mph72%30.43 "HgN/A
11:00 PM
Tue, Mar 31
55 °FCool.3 mph76%30.43 "HgN/A
10:00 PM53 °FCool.3 mph83%30.43 "HgN/A
9:00 PM54 °FCool.2 mph81%30.41 "HgN/A
8:00 PM56 °FCool.7 mph79%30.40 "HgN/A
7:00 PM58 °FCool.9 mph70%30.40 "HgN/A
6:00 PM61 °FCool.8 mph66%30.40 "HgN/A
5:00 PM62 °FMild.8 mph65%30.40 "HgN/A
4:00 PM64 °FMild.9 mph63%30.41 "HgN/A
Weather by CustomWeather, © 2015

See weather overviewHow to use our weather pages